TimeCDT,TemperatureF,Dew PointF,Humidity,Sea Level PressureIn,VisibilityMPH,Wind Direction,Wind SpeedMPH,Gust SpeedMPH,PrecipitationIn,Events,Conditions,WindDirDegrees,DateUTC
12:53 AM,63.0,57.9,84,30.15,10.0,Calm,Calm,-,N/A,,Clear,0,2013-05-26 05:53:00
1:53 AM,61.0,57.9,90,30.13,10.0,Calm,Calm,-,N/A,,Clear,0,2013-05-26 06:53:00
2:53 AM,62.1,59.0,90,30.13,10.0,Calm,Calm,-,N/A,,Clear,0,2013-05-26 07:53:00
3:53 AM,62.1,59.0,90,30.14,10.0,Calm,Calm,-,N/A,,Clear,0,2013-05-26 08:53:00
4:53 AM,64.0,60.1,87,30.15,10.0,Calm,Calm,-,N/A,,Clear,0,2013-05-26 09:53:00
5:53 AM,63.0,60.1,90,30.16,10.0,Calm,Calm,-,N/A,,Clear,0,2013-05-26 10:53:00
6:53 AM,63.0,60.1,90,30.16,10.0,Calm,Calm,-,N/A,,Clear,0,2013-05-26 11:53:00
7:53 AM,70.0,63.0,78,30.17,10.0,Calm,Calm,-,N/A,,Clear,0,2013-05-26 12:53:00
8:53 AM,73.9,64.0,71,30.19,10.0,SE,3.5,-,N/A,,Clear,130,2013-05-26 13:53:00
9:53 AM,78.1,61.0,56,30.19,10.0,SE,8.1,-,N/A,,Clear,140,2013-05-26 14:53:00
10:53 AM,80.1,59.0,48,30.19,10.0,Variable,5.8,-,N/A,,Clear,0,2013-05-26 15:53:00
11:53 AM,82.0,57.0,42,30.18,10.0,SSE,6.9,-,N/A,,Clear,160,2013-05-26 16:53:00
12:53 PM,82.0,57.0,42,30.17,10.0,SSW,4.6,-,N/A,,Clear,200,2013-05-26 17:53:00
1:53 PM,82.0,57.0,42,30.17,10.0,South,5.8,-,N/A,,Clear,170,2013-05-26 18:53:00
2:53 PM,81.0,57.0,44,30.15,10.0,South,6.9,-,N/A,,Clear,170,2013-05-26 19:53:00
3:53 PM,80.1,57.9,47,30.14,10.0,Calm,Calm,-,N/A,,Clear,0,2013-05-26 20:53:00
4:53 PM,80.1,61.0,52,30.13,10.0,Calm,Calm,-,N/A,,Clear,0,2013-05-26 21:53:00
5:53 PM,79.0,62.1,56,30.11,10.0,Calm,Calm,-,N/A,,Clear,0,2013-05-26 22:53:00
6:53 PM,77.0,64.9,66,30.11,10.0,Calm,Calm,-,N/A,,Clear,0,2013-05-26 23:53:00
7:53 PM,77.0,64.9,66,30.11,10.0,Calm,Calm,-,N/A,,Clear,0,2013-05-27 00:53:00
8:53 PM,72.0,66.0,81,30.11,10.0,Calm,Calm,-,N/A,,Clear,0,2013-05-27 01:53:00
9:53 PM,70.0,64.9,84,30.12,10.0,Calm,Calm,-,N/A,,Clear,0,2013-05-27 02:53:00
10:53 PM,69.1,63.0,81,30.13,10.0,Calm,Calm,-,N/A,,Clear,0,2013-05-27 03:53:00
11:53 PM,66.9,62.1,84,30.12,10.0,SE,4.6,-,N/A,,Clear,130,2013-05-27 04:53:00